Tracking 27420 objects as of 29-May-2023
HD Live streaming from Space Station
objects crossing your sky now

TITAN 3C TRANSTAGE DEB

Track TITAN 3C TRANSTAGE DEB now!


NORAD ID: 8832
Int'l Code: 1976-023J
Perigee: 35,760.2 km
Apogee: 36,973.7 km
Inclination: 19.5 °
Period: 1,465.5 minutes
Semi major axis: 42737 km
RCS: 0.9812 m2 (medium)
Launch date: March 15, 1976
Source: United States (US)
Launch site: AIR FORCE EASTERN TEST RANGE (AFETR)

Note: This is SATELLITE DEBRIS
Your satellite tracking list
Your tracking list is empty




NASA's NSSDC Master Catalog

Two Line Element Set (TLE):
1 08832U 76023J   23148.06931569 -.00000273  00000-0  00000-0 0  9999
2 08832  19.4924  56.8734 0141973  64.3266 115.1216  0.98261369106634
Source of the keplerian elements: AFSPC